01:51
Airports
History
Links
Donate
Help keep this website running!
PayPal
Bitcoin
This page is community maintained. The information is intended for PC simulator navigation or reference.
Always use approved charts for navigation.
SBST
BASE AEREA DE SANTOS
BASE AEREA DE SANTOS (SBST)
Guarujá, São Paulo, Brazil (11420)
(C)
Lat/Lng:23° 55' 30.73" S / 46° 17' 15" W
-23.925204 / -46.287499
Elevation:10'ft / 3mMSL
ID / ICAO:SBST
Runways:1
Longest:17-35
Asphalt 1,400m / 4,594ft
Controlled:Yes
METAR22:00 GMT 2017-10-18
Altimeter: 29.88
Visibility: 3.7 statute miles
Wind: 4 knots (from 140°)
Temp: 24°c / 75°f
Humidity: 88.6%

METAR: SBST 182200Z 14004KT 6000 NSC 24/22 Q1012

(Powered by phpweather)
Airport Radio Frequencies
Tower: 118.3, 122.8
Approach: 119.8, 120.05, 129.5
Runway 17 / 35
Dimensions:1400.1 x 45.1m 4594' x 148'ft
Surface:Asphalt
Edge Lights:Low intensity
Runway 17 [A]Runway 35 [B]
Heading:148°TH 328°TH
Lat:
Lng:
23° 55' 11.44"S
46° 17' 27.79"W
23° 55' 50.03"S
46° 17' 2.2"W
User Notes and Comments
23° 55' 30.73" S / 46° 17' 15" W
Distance To
Airport ID:
Nearby Airports
4 Fazenda Irohy 28.4 NM
SDIH NNE 29°
(C) Sao Paulo Congonhas 31.1 NM
SBSP ( WX ) NW 311°
4 Fazenda Caicara 35.5 NM
SDCR WSW 253°
(U) Itanhaem 35.5 NM
SDIM WSW 242°
(C) Sao Paulo - Guarulhos 35.9 NM
SBGR ( WX ) NNW 341°
(C) MARTE 36.3 NM
SBMT ( WX ) NW 322°
4 Nascimento I 48.8 NM
SDNI WNW 295°
VFR Chart
Flight Planning at SkyVector.com